Zurück zum Katalog

STARLINK-6361

AktivKommunikationVLEO
NORAD 57379·PAYLOAD·🇺🇸 United States

Gestartet Jul 16, 2023 von Cape Canaveral Space Force Station

Loading…

Nächste Überflüge (nächste 24 Stunden)

TLE

AktuellSource: CelesTrak SupGP

Epoche: Sep 15, 2026, 01:55 UTC

1 57379C 23099BD  26258.08034722 -.00028255  00000+0 -10234-2 0  2586
2 57379  42.9992 248.5454 0000976 268.3765 170.6263 15.27593600    13

Verfolge STARLINK-6361 in Echtzeit mit AllMySat

Download on the App Store